Total_Precipitation_Accumulation
0.05 0.15 0.38 0.60 0.99 1.49 1.47 0.98 0.78 0.56 0.45 0.45 0.36 0.33 0.43 0.66 1.03 1.83 1.70 1.22 0.82 0.78 0.98 1.20 1.32 1.35 1.31 1.30 1.48 1.57 1.59 1.63 1.66 1.79 1.88 1.96 1.98 1.87 1.74 1.72 1.76 1.84 1.82 1.77 1.78 1.80 1.71 1.49 1.40
0.07 0.18 0.38 0.65 1.18 1.66 1.40 0.75 0.51 0.41 0.36 0.38 0.36 0.36 0.53 0.61 0.61 0.98 1.12 0.99 0.66 0.66 0.81 0.93 1.12 1.14 1.09 1.12 1.19 1.35 1.47 1.44 1.52 1.77 1.87 1.95 1.89 1.79 1.73 1.64 1.67 1.77 1.86 1.92 1.80 1.67 1.52 1.32 1.26
0.10 0.18 0.34 0.63 1.00 1.19 1.00 0.60 0.39 0.32 0.37 0.50 0.52 0.44 0.67 0.71 0.63 0.86 0.91 0.70 0.58 0.68 0.86 0.93 0.92 0.84 0.80 0.81 0.91 1.13 1.29 1.42 1.52 1.65 1.70 1.75 1.70 1.69 1.61 1.54 1.63 1.78 1.99 2.05 1.82 1.56 1.37 1.22 1.09
0.09 0.19 0.28 0.49 0.60 0.56 0.53 0.44 0.34 0.33 0.36 0.47 0.57 0.60 0.76 0.65 0.54 0.67 0.74 0.60 0.54 0.65 0.70 0.71 0.72 0.66 0.67 0.71 0.84 0.98 1.09 1.27 1.44 1.46 1.52 1.62 1.70 1.67 1.57 1.60 1.74 1.94 2.07 1.92 1.68 1.43 1.28 1.18 1.04
0.09 0.17 0.28 0.45 0.52 0.49 0.41 0.38 0.34 0.41 0.45 0.52 0.58 0.82 0.96 0.82 0.61 0.59 0.65 0.53 0.39 0.43 0.48 0.54 0.62 0.59 0.62 0.64 0.75 0.92 1.08 1.21 1.21 1.28 1.54 1.69 1.72 1.72 1.75 1.74 1.88 1.97 1.92 1.76 1.63 1.40 1.28 1.14 1.08
0.07 0.13 0.22 0.37 0.44 0.45 0.37 0.30 0.26 0.35 0.50 0.66 0.72 0.86 1.08 1.01 0.76 0.65 0.51 0.44 0.35 0.31 0.43 0.55 0.62 0.61 0.61 0.63 0.73 0.90 1.02 1.09 1.14 1.25 1.41 1.54 1.61 1.69 1.79 1.85 1.94 1.90 1.84 1.67 1.51 1.31 1.24 1.20 1.15
0.05 0.09 0.14 0.27 0.35 0.34 0.30 0.30 0.26 0.30 0.48 0.68 0.71 0.98 1.20 1.22 0.94 0.69 0.57 0.54 0.54 0.43 0.50 0.63 0.68 0.71 0.75 0.85 0.93 1.05 1.10 1.17 1.23 1.28 1.33 1.35 1.46 1.60 1.72 1.86 1.95 1.92 1.76 1.50 1.38 1.25 1.19 1.16 1.16
0.07 0.06 0.09 0.16 0.22 0.30 0.24 0.24 0.25 0.33 0.38 0.48 0.59 0.85 1.16 1.13 0.95 0.87 0.97 0.93 0.98 0.78 0.64 0.63 0.78 0.92 0.91 0.93 1.09 1.15 1.21 1.24 1.26 1.29 1.36 1.45 1.57 1.62 1.74 1.84 2.06 2.07 1.80 1.48 1.36 1.22 1.09 1.10 1.16
0.04 0.10 0.10 0.11 0.14 0.20 0.17 0.23 0.24 0.21 0.27 0.36 0.48 0.67 0.89 0.88 0.90 1.13 1.40 1.26 1.29 1.12 0.87 0.72 0.68 0.85 1.01 1.01 1.05 1.18 1.25 1.31 1.40 1.54 1.63 1.77 1.91 1.86 2.08 2.18 2.39 2.33 2.01 1.77 1.59 1.40 1.27 1.17 1.15
0.02 0.09 0.08 0.07 0.07 0.11 0.13 0.19 0.20 0.24 0.46 0.72 0.84 0.89 0.97 1.22 1.28 1.39 1.47 1.37 1.34 1.31 1.11 0.95 0.84 0.81 0.93 0.97 1.20 1.50 1.46 1.55 1.74 2.02 2.10 2.33 2.43 2.41 2.11 2.52 2.79 2.72 2.55 2.29 2.17 1.99 1.68 1.40 1.33
0.01 0.05 0.07 0.07 0.05 0.06 0.10 0.11 0.16 0.27 0.61 0.98 1.22 1.29 1.32 1.55 1.76 1.79 1.85 1.85 1.73 1.63 1.38 1.14 1.06 1.08 1.08 1.25 1.26 1.49 1.77 2.00 2.07 2.10 2.22 2.44 2.39 2.26 2.24 2.52 2.65 2.65 2.60 2.56 2.70 2.56 2.13 2.09 2.19
0.01 0.02 0.03 0.05 0.03 0.04 0.06 0.08 0.17 0.39 0.78 0.94 1.17 1.35 1.41 1.79 1.87 1.87 2.30 2.39 1.97 1.68 1.61 1.50 1.43 1.42 1.50 1.40 1.52 1.54 1.65 1.83 1.98 2.14 2.19 2.36 2.63 2.63 2.57 2.65 2.55 2.68 2.75 3.07 2.90 3.02 2.81 2.53 2.25
0.01 0.01 0.02 0.03 0.03 0.03 0.05 0.09 0.18 0.37 0.60 0.69 0.91 1.10 1.15 1.64 1.94 2.17 2.68 2.64 2.33 2.13 2.01 1.86 1.83 1.91 1.91 1.89 1.90 1.70 1.74 1.82 1.95 2.15 2.39 2.45 2.59 2.66 2.67 2.71 2.70 2.40 2.42 2.71 2.98 2.88 3.00 3.00 2.78
0.01 0.02 0.04 0.04 0.04 0.04 0.05 0.12 0.23 0.43 0.57 0.80 0.82 0.98 1.21 1.60 1.89 2.30 2.63 2.88 2.74 2.48 2.29 2.15 2.12 2.22 2.31 2.28 2.32 2.21 1.94 2.04 2.03 2.29 2.40 2.51 2.59 2.72 2.86 2.89 2.83 2.47 2.39 2.65 2.86 2.75 3.08 3.04 3.00
0.02 0.06 0.09 0.08 0.06 0.07 0.08 0.26 0.48 0.58 0.70 0.87 1.00 1.10 1.32 1.68 2.18 2.44 2.70 3.01 3.04 2.96 2.79 2.56 2.45 2.61 2.83 2.92 2.85 2.62 2.38 2.17 2.19 2.33 2.45 2.57 2.56 2.77 2.77 2.71 2.72 2.69 2.56 2.75 2.84 2.85 3.00 2.87 2.75
0.05 0.07 0.13 0.14 0.10 0.10 0.16 0.58 0.72 0.60 0.78 0.97 1.06 1.29 1.60 1.98 2.42 2.92 3.08 2.98 3.01 3.16 3.11 2.81 2.58 3.02 3.38 3.42 3.36 3.09 2.79 2.47 2.36 2.43 2.55 2.62 2.70 2.81 2.95 2.70 2.59 2.83 2.78 2.94 3.24 3.15 3.25 3.36 3.22
0.07 0.12 0.13 0.18 0.13 0.13 0.26 0.74 0.72 0.54 0.66 0.84 1.07 1.31 1.74 2.26 2.61 2.79 2.85 3.04 3.18 3.29 3.25 3.17 3.26 3.36 3.48 3.57 3.67 3.41 3.15 2.90 2.63 2.55 2.55 2.65 2.79 2.90 3.24 3.12 3.10 3.02 3.01 3.07 2.76 3.34 3.62 3.66 3.49
0.06 0.09 0.16 0.18 0.16 0.19 0.29 0.55 0.64 0.64 0.79 0.92 1.22 1.43 1.59 1.98 2.43 2.54 2.66 3.14 3.24 3.43 3.55 3.47 3.58 3.71 3.96 4.16 4.32 3.93 3.52 3.22 2.93 2.74 2.80 2.85 3.04 3.17 3.46 3.34 3.30 3.15 3.23 3.25 3.28 3.72 3.66 3.40 3.41
0.04 0.08 0.17 0.19 0.17 0.23 0.33 0.54 0.74 0.83 0.98 1.28 1.48 1.48 1.46 1.75 2.24 2.60 2.86 3.06 3.41 3.63 3.80 3.79 4.01 4.40 4.72 4.56 4.23 4.02 3.74 3.50 3.26 2.99 2.88 2.92 2.90 3.07 3.42 3.28 3.53 3.41 3.26 3.24 3.23 3.51 3.59 3.33 3.52
0.03 0.07 0.16 0.20 0.19 0.30 0.44 0.67 0.84 1.04 1.27 1.36 1.28 1.28 1.42 1.80 2.30 2.66 2.94 3.10 3.37 3.65 4.08 4.22 4.41 4.75 4.87 4.71 4.57 4.39 4.23 3.83 3.69 3.51 3.31 2.96 2.76 2.86 2.93 3.25 3.08 3.15 3.27 3.20 3.33 3.59 3.48 3.10 3.54
0.05 0.08 0.15 0.16 0.24 0.40 0.51 0.94 1.12 1.28 1.40 1.39 1.32 1.51 1.52 1.60 2.03 2.31 2.43 2.62 2.81 2.96 3.21 3.51 4.00 4.51 4.68 4.74 4.65 4.58 4.58 4.09 3.80 3.64 3.43 3.03 2.75 2.67 2.84 3.00 3.08 3.12 3.02 3.12 3.35 3.41 3.45 3.32 3.39
0.07 0.07 0.08 0.12 0.23 0.51 0.58 1.17 1.40 1.60 1.72 1.58 1.51 1.43 1.39 1.63 1.98 1.99 1.83 1.98 2.24 2.24 2.56 2.98 3.44 3.79 4.01 4.09 4.09 4.10 4.05 3.92 3.82 3.67 3.27 2.99 2.74 2.65 2.73 2.85 2.93 2.97 2.82 2.96 2.81 2.96 3.42 3.52 3.29
0.05 0.06 0.09 0.14 0.25 0.47 0.52 0.87 1.41 1.80 1.98 1.60 1.49 1.36 1.41 1.64 1.69 1.64 1.64 1.75 1.92 2.09 2.41 2.73 3.05 3.34 3.50 3.59 3.65 3.72 3.61 3.62 3.51 3.32 3.08 2.84 2.66 2.51 2.31 2.41 2.67 2.76 2.67 2.63 2.66 2.91 3.04 3.02 3.01
0.05 0.09 0.17 0.25 0.45 0.80 0.66 0.78 1.32 1.73 1.59 1.39 1.32 1.11 1.21 1.40 1.48 1.53 1.62 1.75 1.87 2.18 2.54 2.83 3.06 3.27 3.35 3.13 3.02 3.01 3.04 3.12 3.06 2.88 2.68 2.45 2.32 2.18 2.00 2.07 2.36 2.47 2.49 2.49 2.47 2.54 2.62 2.67 2.71
0.09 0.18 0.62 1.03 1.35 1.22 0.76 0.87 1.47 1.38 1.04 0.97 1.06 1.04 1.02 1.07 1.21 1.33 1.52 1.72 1.90 2.02 2.12 2.56 2.98 3.15 3.06 2.80 2.61 2.52 2.63 2.73 2.66 2.52 2.44 2.32 2.10 1.94 1.93 1.97 2.11 2.15 2.19 2.18 2.27 2.34 2.38 2.54 2.63
0.14 0.25 0.72 1.00 1.08 1.06 0.83 1.25 1.77 1.37 0.92 0.78 0.89 0.88 0.78 0.73 0.70 0.79 0.98 1.09 1.25 1.30 1.33 1.50 1.78 2.02 2.10 1.99 1.99 2.04 2.08 2.14 2.13 2.29 2.15 2.12 2.00 1.85 1.88 1.81 1.79 1.86 1.89 1.89 2.21 2.26 2.39 2.55 2.62
0.24 0.29 0.31 0.52 0.72 1.07 1.09 1.31 1.41 1.18 0.92 0.88 0.96 0.87 0.69 0.65 0.60 0.67 0.78 0.83 0.93 0.97 1.01 1.15 1.40 1.64 1.68 1.68 1.72 1.77 1.78 1.81 1.83 1.89 1.83 1.79 1.82 1.75 1.74 1.71 1.82 1.80 1.85 1.98 2.19 2.21 2.30 2.53 2.57
0.21 0.29 0.44 0.70 0.94 1.09 1.16 1.51 1.67 1.50 1.25 1.09 1.05 0.92 0.71 0.58 0.56 0.63 0.74 0.78 0.89 1.01 1.15 1.28 1.39 1.49 1.50 1.49 1.50 1.45 1.53 1.54 1.58 1.57 1.50 1.51 1.59 1.60 1.58 1.60 1.68 1.74 1.77 1.87 2.11 2.13 2.22 2.35 2.38
0.23 0.31 0.47 0.65 0.71 0.94 1.30 1.45 1.23 1.19 1.17 1.25 1.20 1.00 0.76 0.58 0.53 0.59 0.71 0.77 0.85 0.98 1.12 1.27 1.35 1.45 1.42 1.38 1.45 1.49 1.50 1.53 1.50 1.46 1.39 1.46 1.52 1.54 1.54 1.59 1.68 1.73 1.76 1.89 2.03 2.03 2.15 2.16 2.14
0.22 0.33 0.48 0.73 0.78 0.82 0.99 1.14 0.76 0.79 0.92 1.00 0.99 0.79 0.62 0.55 0.53 0.62 0.73 0.79 0.93 1.00 1.07 1.10 1.19 1.32 1.34 1.36 1.47 1.66 1.63 1.62 1.58 1.44 1.38 1.44 1.44 1.47 1.50 1.59 1.67 1.64 1.74 1.92 2.02 2.01 2.16 2.22 2.18